User: anonymous   Login
Location: Arbon
(43.0005°N, 0.7472°E)
Time: 04:23:45
(UTC+00:00)
Language:

CZ-4C R/B - Orbit

View from above orbital plane
View from above orbital plane
View from above satellite
View from above satellite

Ground track
Ground track

The orbit data is extracted from the following two-line orbital elements,

1 32290U 07055B   20304.18063452 +.00001985 +00000-0 +50819-4 0  9991
2 32290 097.6662 105.6165 0061317 055.6695 305.0331 15.38845833720824
Epoch (UTC): 30 October 2020 04:20:06
Eccentricity: 0.0061317
inclination: 97.6662°
perigee height: 407 km
apogee height: 491 km
right ascension of ascending node: 105.6165°
argument of perigee: 55.6695°
revolutions per day: 15.38845833
mean anomaly at epoch: 305.0331°
orbit number at epoch: 72082

The dashed part of the orbit path shows where the satellite is in the earth's shadow,  

DLR